Location: Eitze
(52.9840°N, 9.6894°E)
Time: 18:57:22
(UTC+00:00)

Daily predictions for brighter satellites

Satellite Brightness Start Highest point End
(mag) Time Altitude Azimuth Time Altitude Azimuth Time Altitude Azimuth
Cosmos 2154 Rocket 4.2 19:50:57 10° NNW 19:57:11 81° W 20:03:23 10° S
Nadezhda 1 Rocket 4.1 19:51:25 10° S 19:57:24 63° E 20:03:30 10° NNE
Cosmos 2341 Rocket 4.5 19:53:33 10° N 19:59:37 47° ENE 20:05:35 10° SE
Cosmos 2184 Rocket 4.4 19:53:58 10° NNW 20:00:10 69° W 20:06:25 10° S
SeaSat 1 3.5 19:58:14 10° ESE 20:02:42 37° NE 20:07:11 10° NNW
Cosmos 2082 Rocket 4.1 20:02:25 10° ESE 20:03:45 11° E 20:05:03 10° E
Cosmos 1933 3.2 20:00:17 10° S 20:04:08 72° E 20:07:59 10° NNE
Okean O Rocket 2.2 19:59:59 10° S 20:04:16 57° WSW 20:08:35 10° NNW
Cosmos 2221 4.4 20:02:07 10° ESE 20:04:26 15° E 20:06:44 10° NE
Iridium 4 Rocket 3.6 19:59:48 10° N 20:04:51 88° W 20:10:20 10° S
SPOT 3 Rocket 3.9 20:03:44 10° SE 20:08:43 54° ENE 20:13:43 10° N
Okean-O 2.9 20:05:24 10° S 20:09:46 68° WSW 20:14:10 10° NNW
ERS-1 Rocket 3.3 20:06:51 10° S 20:11:50 69° WSW 20:16:53 10° NNW
Cosmos 1743 3.0 20:13:20 10° NNW 20:16:43 57° W 20:20:04 10° S
NOSS 2-3 (C) 4.5 20:13:41 10° WSW 20:17:10 47° NNW 20:21:16 10° NE
ISS -3.6 20:16:22 10° W 20:19:41 59° SSW 20:23:00 10° ESE
BREEZE-M R/B 4.5 19:58:49 10° W 20:22:02 69° SSW 20:26:55 10° ESE
Lacrosse 4 Rocket 3.5 20:18:53 10° WSW 20:22:27 31° NW 20:26:05 10° NNE
Spot 2 Rocket 3.6 20:18:35 10° SSE 20:23:37 85° WSW 20:28:41 10° NNW
ARIANE 6 FM1 Upper Stage 2.6 20:20:28 10° SSW 20:24:22 55° SE 20:28:21 10° NE
NOSS 3-1 (C) 3.6 20:20:15 10° S 20:24:37 35° ESE 20:29:48 10° NE
Cosmos 2333 Rocket 4.3 20:21:45 10° NNW 20:25:55 20° NNE 20:30:03 10° ENE
IKONOS-2 4.5 20:22:25 10° NNE 20:26:31 64° ESE 20:30:36 10° S
Cosmos 1782 4.5 20:23:40 10° SW 20:27:01 32° WNW 20:30:22 10° N
CZ-4 R/B 4.5 20:29:45 10° W 20:30:29 10° W 20:31:12 10° WNW
Cosmos 1833 Rocket 2.8 20:25:21 10° SSW 20:30:52 59° ESE 20:36:26 10° NE
Cosmos 1356 Rocket 4.0 20:28:51 10° SSE 20:32:40 37° E 20:36:28 10° NNE
Cosmos 1733 2.6 20:29:58 10° NNW 20:33:04 84° W 20:36:07 10° S
Cosmos 1821 Rocket 4.5 20:29:08 10° N 20:35:02 47° ENE 20:40:29 12° SE
Cosmos 158 Rocket 4.0 20:34:27 10° SSW 20:39:46 83° ESE 20:45:11 10° NNE
Cosmos 2218 Rocket 4.1 20:33:30 10° N 20:39:55 72° ENE 20:46:01 11° SSE
USA 245 4.2 20:35:49 10° S 20:40:01 64° W 20:45:16 10° NNW
Cosmos 2058 Rocket 3.7 20:40:23 10° SSW 20:44:48 58° WNW 20:49:13 10° N
Helios 1A 4.1 20:42:58 10° N 20:46:51 45° WNW 20:50:42 10° SW
Cosmos 1805 3.9 20:45:07 10° N 20:48:19 34° ENE 20:50:42 15° SE
SWARM A 4.5 20:48:25 14° SSE 20:51:11 55° E 20:54:32 10° N
PSLV R/B 3.7 20:49:41 12° S 20:52:36 60° WSW 20:55:51 10° NNW
Cosmos 1980 Rocket 2.2 20:47:02 10° NNW 20:52:40 81° ENE 20:57:27 15° SE
Cosmos 1812 Rocket 3.7 20:48:57 11° S 20:52:55 53° E 20:57:08 10° NNE
NOSS 3-1 (A) 3.9 20:50:27 11° S 20:54:22 27° ESE 20:59:05 10° ENE
Terra 3.3 20:51:52 10° SSW 20:56:05 33° W 21:00:21 10° NNW
USA 234 3.2 20:49:35 10° ENE 20:56:06 65° SE 21:02:35 10° SW
ATLAS CENTAUR R/B 1.1 20:52:33 10° SW 20:56:16 84° NW 21:00:08 10° NE
Cosmos 1315 Rocket 3.1 20:55:12 14° SSE 20:58:19 47° E 21:02:05 10° NNE
BREEZE-M DEB (TANK) 4.4 20:38:46 10° W 20:59:33 72° S 21:04:41 10° ESE
Meteor 1-26 Rocket 4.4 20:55:37 10° SSW 21:01:30 89° W 21:07:34 10° NNE
Cosmos 2208 Rocket 4.2 20:56:14 10° S 21:01:30 58° ESE 21:06:44 10° NNE
SL-16 R/B 3.4 20:58:27 10° NNW 21:03:38 34° NE 21:08:47 10° ESE
Cosmos 2181 Rocket 4.1 20:58:42 10° S 21:04:54 66° E 21:11:14 10° NNE
DELTA 2 DEB (DPAF) 4.5 21:02:50 10° NNE 21:06:33 38° E 21:09:02 18° SSE
Meteor 1-11 Rocket 4.2 21:01:23 10° N 21:06:44 47° ENE 21:10:57 16° SE
Genesis I 4.4 21:04:55 10° NNW 21:07:12 23° NNE 21:09:29 10° E
BlueWalker 3 3.0 21:05:12 10° W 21:08:22 28° SW 21:10:13 18° SSE
SL-24 R/B 4.2 21:04:41 10° NNE 21:08:58 61° ESE 21:12:50 13° S
Meteor 2-10 4.3 21:03:24 10° NNW 21:09:08 80° W 21:13:58 14° S
Cosmos 2322 Rocket 3.8 21:07:34 10° NNW 21:12:26 28° NE 21:17:16 10° E
Cosmos 1975 4.3 21:10:28 10° NNE 21:13:23 22° ENE 21:15:35 14° ESE
Cosmos 2366 rocket 4.3 21:08:48 10° NNW 21:15:07 67° W 21:21:09 11° S
CZ-4C R/B 4.3 21:15:05 10° NE 21:18:15 27° E 21:19:42 20° SE
SL-24 DEB 4.3 21:14:17 13° S 21:18:15 71° W 21:22:49 10° N
Meteor 1-14 Rocket 4.2 21:13:39 10° NNW 21:19:17 88° WSW 21:23:50 17° S
Ariane Rocket 3.8 21:16:59 11° S 21:21:42 46° W 21:26:36 10° NNW
Cosmos 2298 Rocket 4.3 21:18:41 10° NNW 21:23:58 63° WSW 21:27:57 17° S
Cosmos 1697 Rocket 3.9 21:19:30 10° NW 21:24:33 34° WSW 21:29:17 11° SSW
Cosmos 1238 Rocket 2.4 21:22:13 16° S 21:25:05 89° WNW 21:28:21 10° N
Lacrosse 5 rocket 3.0 21:23:09 10° W 21:25:13 15° SW 21:26:35 12° SSW
Nadezhda 3 Rocket 4.3 21:21:58 17° SSE 21:26:33 51° E 21:32:33 10° NNE
ARIANE 5 R/B 3.5 21:23:51 17° SE 21:26:45 37° ENE 21:30:47 10° N
Cosmos 1570 Rocket 4.2 21:22:45 10° SSW 21:27:59 73° WNW 21:33:18 10° NNE
Cosmos 1766 4.3 21:26:52 10° N 21:29:53 27° ENE 21:31:35 18° ESE
Cosmos 2278 4.4 21:24:33 10° NNW 21:30:01 46° NE 21:34:48 13° ESE
Cosmos 1934 Rocket 4.5 21:24:56 10° N 21:31:00 50° ENE 21:35:32 18° SE
CENTAUR R/B 3.9 21:24:16 10° NW 21:31:40 53° NNE 21:40:26 10° ESE
Cosmos 2360 Rocket 3.6 21:27:14 10° NNW 21:32:13 31° NE 21:37:11 10° ESE
ATLAS 3B R/B 3.9 21:30:06 18° SSE 21:34:01 27° ESE 21:40:14 10° ENE
Cosmos 1536 2.8 21:31:22 10° NNW 21:35:11 71° W 21:37:32 22° S
Meteor 2-6 Rocket 4.3 21:30:19 11° SSW 21:36:05 87° W 21:41:50 10° NNE
Cosmos 2369 3.7 21:31:53 10° NNW 21:37:35 77° WSW 21:41:29 21° SSE
SeaSat 1 2.9 21:36:40 19° S 21:39:58 52° WSW 21:44:47 10° NW
Cosmos 405 Rocket 2.8 21:36:43 10° N 21:40:05 51° ENE 21:41:40 27° SE
Cosmos 2221 2.6 21:37:29 14° SSW 21:41:00 72° WNW 21:45:10 10° N
Cosmos 1674 1.1 21:44:17 59° S 21:44:36 78° E 21:46:51 10° NNE
Okean 1 3.5 21:42:37 15° SSW 21:45:32 60° WNW 21:49:11 10° N
Cosmos 2082 Rocket 2.3 21:42:05 15° S 21:46:36 58° ESE 21:52:07 10° NE
ISS -2.4 21:53:22 10° W 21:56:04 23° SSW 21:56:12 23° SSW
Okean 3 Rocket 3.7 21:52:21 10° N 21:56:45 64° ENE 21:59:09 26° SSE
COBE Rocket 4.0 21:52:06 10° NNE 21:57:14 83° ESE 22:00:56 19° S
Cosmos 773 Rocket 4.2 21:52:11 10° SSW 21:57:18 72° WNW 22:02:27 10° NNE
Landsat 5 4.3 21:54:39 10° NNE 21:58:30 35° E 22:00:11 25° SE
Meteor 1-10 Rocket 4.3 21:54:20 18° S 21:58:48 81° ESE 22:04:40 10° NNE
Cosmos 1766 Rocket 3.8 21:55:15 10° NNW 21:59:37 61° W 22:02:12 23° S
Cosmos 220 Rocket 4.0 21:57:21 13° SSW 22:00:55 72° WNW 22:05:00 10° NNE
Cosmos 2084 Rocket 3.6 21:56:53 10° SW 22:01:09 74° NW 22:05:23 10° NE
COSMOS 2406 3.5 21:59:10 21° S 22:02:44 51° ESE 22:08:15 10° NE
ARIANE 6 FM1 Upper Stage 4.2 21:59:54 10° W 22:03:41 38° NNW 22:07:31 10° NE
Cosmos 1842 4.5 22:02:55 20° ESE 22:03:45 22° E 22:06:31 10° NE
USA 59 Rocket -0.2 22:10:24 36° SE 22:10:26 36° SE 22:13:13 10° ENE
Cosmos 2333 Rocket 2.7 22:05:49 10° NNW 22:11:30 56° NE 22:15:54 17° SE
MetOp-A 4.0 22:10:43 25° S 22:13:46 79° WSW 22:18:59 10° NNW
NOSS 3-1 (C) 3.8 22:10:00 10° WSW 22:14:59 59° NNW 22:21:15 10° NE
Cosmos 1833 Rocket 4.3 22:09:56 10° WSW 22:15:07 35° NW 22:20:18 10° NNE
Cosmos 1300 4.4 22:14:14 10° NNE 22:16:29 18° ENE 22:17:49 14° E
Cosmos 1151 Rocket 4.2 22:19:28 23° SE 22:21:03 29° E 22:24:44 10° NNE
NOSS 2-1 (E) 3.2 22:21:20 39° SE 22:21:32 39° SE 22:24:25 10° ENE
ALOS 2 2.8 22:19:44 27° SE 22:22:01 65° ENE 22:26:24 10° N
PKM 3.6 22:20:00 10° WSW 22:22:49 90° SE 22:27:55 10° ENE
Meteor 2-13 Rocket 4.4 22:19:05 22° S 22:23:10 80° E 22:29:20 10° NNE
Cosmos 2219 Rocket 3.3 22:21:58 10° NNW 22:27:17 40° NE 22:32:33 10° ESE
ATLAS CENTAUR R/B 3.8 22:29:52 10° WNW 22:32:56 23° NNW 22:36:04 10° NNE
Meteor 2-4 Rocket 3.9 22:30:51 26° S 22:34:03 62° E 22:39:49 10° NNE
Meteor 1-27 Rocket 3.7 22:30:54 22° SSW 22:34:36 84° WNW 22:40:11 10° NNE
Cosmos 1980 Rocket 3.9 22:31:55 10° NW 22:36:01 21° WSW 22:39:12 13° SW
Sich 1 2.9 22:32:16 10° NNW 22:36:33 87° WSW 22:38:23 33° S
NOSS 2-1 (D) 2.6 22:36:14 43° SSW 22:37:02 64° SE 22:40:00 10° NE
USA 234 3.5 22:32:44 10° ENE 22:39:14 72° NNW 22:45:45 10° W
Genesis I 2.9 22:37:56 10° NW 22:40:24 40° WSW 22:40:24 40° WSW
NOSS 3-1 (A) 3.4 22:39:29 10° WSW 22:44:30 71° NW 22:50:46 10° NE
PSLV R/B 4.0 22:41:21 10° NNE 22:45:23 44° E 22:46:52 31° SSE
Cosmos 2056 Rocket 4.2 22:41:49 10° NNW 22:47:02 50° ENE 22:50:55 17° SE
SL-16 R/B 2.3 22:42:29 10° NW 22:48:05 62° WSW 22:51:04 28° S
Cosmos 1975 3.6 22:45:26 10° NNW 22:48:53 37° W 22:50:13 27° SW
Cosmos 1500 Rocket 3.5 22:47:16 10° NNW 22:51:39 75° W 22:53:33 33° S
Cosmos 1707 2.2 22:51:13 46° S 22:52:06 82° E 22:55:29 10° NNE
H-2A R/B 4.4 22:50:24 11° ESE 22:53:17 21° ENE 22:56:15 10° N
Cosmos 1538 Rocket 3.9 22:50:41 27° SSW 22:53:34 77° ESE 22:58:44 10° NNE
NOSS 2-1 (C) 2.6 22:55:39 33° SW 22:56:57 86° NW 22:59:56 10° NE
Cosmos 2322 Rocket 2.1 22:51:25 10° NNW 22:57:07 82° WSW 23:00:24 26° SSE
Cosmos 1633 Rocket 4.1 22:54:18 10° N 22:58:23 37° ENE 23:00:47 20° SE
Spot 4 4.3 22:56:44 27° SSW 22:58:58 49° W 23:03:38 10° NNW
Cosmos 1408 Rocket 4.0 22:56:16 10° NNW 23:00:31 52° W 23:02:20 30° SSW
COSMOS 2428 4.2 22:57:08 10° NNW 23:02:22 35° NE 23:07:34 10° ESE
ARIANE 5 R/B 3.8 23:01:14 22° SW 23:03:09 31° W 23:07:03 10° NNW
Cosmos 1766 4.5 23:01:20 10° NNW 23:04:14 25° W 23:05:17 21° WSW
Cosmos 1908 3.8 23:02:42 10° NNW 23:05:42 34° W 23:06:26 30° WSW
Cosmos 1470 2.9 23:02:50 10° NNW 23:06:19 50° W 23:07:19 37° SW
Meteor 2-10 Rocket 4.2 23:01:38 10° N 23:07:16 55° ENE 23:11:09 21° SE
Cosmos 1805 Rocket 3.9 23:03:21 10° NNW 23:07:43 56° W 23:09:35 31° SSW
Cosmos 1066 Rocket 4.3 23:04:56 28° S 23:07:59 73° E 23:13:45 10° NNE
Cosmos 2278 4.3 23:08:50 10° NW 23:14:06 41° WSW 23:16:39 26° SSW
GP-B 3.0 23:10:13 10° N 23:14:38 80° E 23:16:31 34° S
Exosat Rocket 3.9 23:11:15 10° NW 23:16:09 49° WSW 23:18:24 29° S
Cosmos 2360 Rocket 2.2 23:11:05 10° NW 23:16:42 71° WSW 23:19:47 27° SSE
Cosmos 2173 Rocket 4.3 23:11:14 10° N 23:17:34 64° ENE 23:21:47 22° SSE
Meteor 1-18 Rocket 4.3 23:14:33 27° S 23:17:53 88° E 23:23:50 10° NNE
Cosmos 1758 4.5 23:18:35 10° N 23:22:07 34° ENE 23:24:09 20° ESE
CENTAUR R/B 3.2 23:14:56 10° NW 23:22:59 76° SW 23:31:24 13° SSE
Spot 1 4.2 23:19:06 10° NNE 23:23:20 71° WNW 23:25:34 29° SSW
ASTEX 1 3.4 23:18:40 10° N 23:23:38 80° E 23:26:06 30° S
ATLAS 3B R/B 2.9 23:17:16 14° SW 23:23:53 85° SE 23:31:49 10° NE
USA 229 DEB 3.5 23:20:46 24° SSW 23:24:38 66° SE 23:31:25 10° NE
USA 229 3.5 23:20:54 24° SSW 23:24:44 66° SE 23:31:30 10° NE
Cosmos 1328 Rocket 4.1 23:23:10 28° SSE 23:24:56 45° E 23:29:04 10° NNE
Cosmos 1743 Rocket 4.0 23:21:39 10° NNW 23:25:57 50° W 23:27:46 30° SSW
GEOS 3 Rocket 3.8 23:22:28 10° ESE 23:27:32 69° NE 23:32:41 10° NW
Cosmos 2082 Rocket 3.6 23:25:50 10° WSW 23:30:59 36° NW 23:36:10 10° NNE
Cosmos 1842 4.3 23:36:29 22° WSW 23:37:55 31° WNW 23:41:04 10° N
Cosmos 1420 Rocket 4.4 23:35:52 10° NNW 23:41:00 51° WSW 23:43:26 29° SSW
Cosmos 2112 Rocket 4.2 23:41:11 29° S 23:43:47 60° ESE 23:48:56 10° NNE
Cosmos 1455 1.4 23:43:46 10° N 23:46:36 71° E 23:47:02 55° SE
COSMOS 2406 4.4 23:41:51 10° WSW 23:47:12 40° NW 23:52:36 10° NNE
Cosmos 2237 Rocket 3.9 23:42:33 10° NNW 23:47:38 33° NE 23:52:42 10° ESE
Cosmos 1300 3.1 23:47:03 10° NNW 23:49:57 33° W 23:50:27 31° WSW
SL-14 R/B 3.5 23:53:45 33° SSE 23:55:15 57° E 23:59:04 10° NNE
Cosmos 1953 4.3 23:54:00 10° NNE 23:56:54 21° ENE 23:59:46 10° ESE
